When you browse on this site, cookies collect data to enhance your experience and personalize the content and advertising you see.
Visit our Privacy Policy to learn more. By continuing to use the site, you agree to this use of cookies and data.
  • în România
  • Lista ţărilor
  • Pe 7 zile
  • Temperatura apei
  • Hartă satelitară
  • Meteo pe hartă
  • Widget-uri
  • user-avatar
    Intrare

    Meteo pe oră la Arhus

    Astăzi, 17 Iulie, Miercuri

    Timp Temperatura Precipitaţii Vânt Presiune Umiditate
    00:00 +14°C° 0 mm 2 m/s 758 mmHg 84%
    01:00 +13°C° 0 mm 3 m/s 758 mmHg 85%
    02:00 +13°C° 0 mm 2 m/s 758 mmHg 88%
    03:00 +13°C° 0 mm 2 m/s 758 mmHg 90%
    04:00 +13°C° 0 mm 2 m/s 758 mmHg 92%
    05:00 +14°C° 0 mm 2 m/s 758 mmHg 89%
    06:00 +14°C° 0 mm 2 m/s 758 mmHg 86%
    07:00 +15°C° 0 mm 2 m/s 758 mmHg 84%
    08:00 +18°C° 0 mm 1 m/s 758 mmHg 78%
    09:00 +19°C° 0 mm 1 m/s 758 mmHg 71%
    10:00 +20°C° 0 mm 1 m/s 759 mmHg 65%
    11:00 +21°C° 0 mm 1 m/s 759 mmHg 63%
    12:00 +21°C° 0 mm 2 m/s 758 mmHg 61%
    13:00 +21°C° 0 mm 2 m/s 758 mmHg 60%
    14:00 +21°C° 0.1 mm 2 m/s 758 mmHg 62%
    15:00 +21°C° 0.1 mm 2 m/s 758 mmHg 64%
    16:00 +21°C° 0.1 mm 3 m/s 758 mmHg 66%
    17:00 +20°C° 0.1 mm 2 m/s 758 mmHg 68%
    18:00 +20°C° 0.1 mm 2 m/s 758 mmHg 71%
    19:00 +20°C° 0.1 mm 2 m/s 758 mmHg 73%
    20:00 +18°C° 0 mm 2 m/s 758 mmHg 78%
    21:00 +17°C° 0 mm 2 m/s 758 mmHg 83%
    22:00 +14°C° 0 mm 3 m/s 758 mmHg 88%
    23:00 +14°C° 0 mm 2 m/s 758 mmHg 88%

    Mâine, 18 Iulie, Joi

    Timp Temperatura Precipitaţii Vânt Presiune Umiditate
    00:00 +14°C° 0 mm 2 m/s 758 mmHg 89%
    01:00 +13°C° 0 mm 1 m/s 758 mmHg 89%
    02:00 +13°C° 0 mm 1 m/s 757 mmHg 89%
    03:00 +13°C° 0 mm 1 m/s 757 mmHg 89%
    04:00 +13°C° 0 mm 1 m/s 757 mmHg 89%
    05:00 +14°C° 0 mm 1 m/s 757 mmHg 86%
    06:00 +15°C° 0 mm 1 m/s 757 mmHg 83%
    07:00 +16°C° 0 mm 1 m/s 757 mmHg 80%
    08:00 +19°C° 0 mm 1 m/s 757 mmHg 75%
    09:00 +19°C° 0 mm 2 m/s 757 mmHg 71%
    10:00 +20°C° 0 mm 2 m/s 757 mmHg 67%
    11:00 +20°C° 0 mm 3 m/s 757 mmHg 67%
    12:00 +21°C° 0 mm 3 m/s 757 mmHg 66%
    13:00 +21°C° 0 mm 4 m/s 757 mmHg 65%
    14:00 +21°C° 0.2 mm 4 m/s 757 mmHg 66%
    15:00 +21°C° 0.2 mm 4 m/s 756 mmHg 68%
    16:00 +21°C° 0.2 mm 4 m/s 756 mmHg 69%
    17:00 +20°C° 0.2 mm 4 m/s 756 mmHg 73%
    18:00 +20°C° 0.2 mm 4 m/s 756 mmHg 76%
    19:00 +19°C° 0.2 mm 4 m/s 756 mmHg 80%
    20:00 +18°C° 0 mm 3 m/s 756 mmHg 82%
    21:00 +18°C° 0 mm 3 m/s 756 mmHg 84%
    22:00 +17°C° 0 mm 3 m/s 756 mmHg 86%
    23:00 +17°C° 0.2 mm 3 m/s 756 mmHg 87%

    Poimâine, 19 Iulie, Vineri

    Timp Temperatura Precipitaţii Vânt Presiune Umiditate
    00:00 +17°C° 0.2 mm 3 m/s 756 mmHg 87%
    01:00 +17°C° 0.2 mm 3 m/s 756 mmHg 88%
    02:00 +17°C° 0.1 mm 2 m/s 756 mmHg 88%
    03:00 +17°C° 0.1 mm 2 m/s 756 mmHg 88%
    04:00 +17°C° 0.1 mm 2 m/s 756 mmHg 88%
    05:00 +17°C° 0.1 mm 2 m/s 756 mmHg 86%
    06:00 +18°C° 0.1 mm 2 m/s 756 mmHg 84%
    07:00 +20°C° 0.1 mm 1 m/s 756 mmHg 81%
    08:00 +19°C° 0 mm 2 m/s 756 mmHg 76%
    09:00 +20°C° 0 mm 2 m/s 756 mmHg 71%
    10:00 +21°C° 0 mm 2 m/s 756 mmHg 66%
    11:00 +23°C° 0.2 mm 2 m/s 756 mmHg 67%
    12:00 +22°C° 0.2 mm 3 m/s 757 mmHg 68%
    13:00 +22°C° 0.2 mm 3 m/s 757 mmHg 68%
    14:00 +23°C° 1 mm 2 m/s 757 mmHg 70%
    15:00 +23°C° 1 mm 2 m/s 757 mmHg 71%
    16:00 +23°C° 1 mm 2 m/s 757 mmHg 72%
    17:00 +21°C° 0.4 mm 2 m/s 757 mmHg 74%
    18:00 +21°C° 0.4 mm 2 m/s 757 mmHg 76%
    19:00 +22°C° 0.4 mm 1 m/s 757 mmHg 78%
    20:00 +19°C° 0 mm 2 m/s 757 mmHg 82%
    21:00 +18°C° 0 mm 2 m/s 757 mmHg 86%
    22:00 +16°C° 0 mm 2 m/s 758 mmHg 90%
    23:00 +16°C° 0 mm 2 m/s 758 mmHg 90%

    20 Iulie, Sâmbătă

    Timp Temperatura Precipitaţii Vânt Presiune Umiditate
    00:00 +15°C° 0 mm 2 m/s 758 mmHg 90%
    01:00 +15°C° 0 mm 2 m/s 758 mmHg 91%
    02:00 +15°C° 0 mm 2 m/s 758 mmHg 91%
    03:00 +15°C° 0 mm 2 m/s 758 mmHg 91%
    04:00 +15°C° 0 mm 1 m/s 758 mmHg 91%
    05:00 +16°C° 0 mm 1 m/s 757 mmHg 90%
    06:00 +18°C° 0 mm 1 m/s 757 mmHg 88%
    07:00 +19°C° 0 mm 1 m/s 757 mmHg 87%
    08:00 +19°C° 0 mm 2 m/s 757 mmHg 83%
    09:00 +20°C° 0 mm 3 m/s 758 mmHg 80%
    10:00 +21°C° 0 mm 3 m/s 758 mmHg 77%
    11:00 +21°C° 0 mm 4 m/s 758 mmHg 74%
    12:00 +21°C° 0 mm 4 m/s 757 mmHg 71%
    13:00 +22°C° 0 mm 4 m/s 757 mmHg 68%
    14:00 +21°C° 0 mm 4 m/s 757 mmHg 70%
    15:00 +20°C° 0 mm 3 m/s 757 mmHg 71%
    16:00 +20°C° 0 mm 3 m/s 757 mmHg 73%
    17:00 +20°C° 0.1 mm 3 m/s 757 mmHg 75%
    18:00 +19°C° 0.1 mm 3 m/s 757 mmHg 77%
    19:00 +19°C° 0.1 mm 4 m/s 757 mmHg 78%
    20:00 +19°C° 0.6 mm 4 m/s 757 mmHg 83%
    21:00 +18°C° 0.6 mm 4 m/s 757 mmHg 88%
    22:00 +18°C° 0.6 mm 4 m/s 757 mmHg 93%
    23:00 +17°C° 0 mm 4 m/s 757 mmHg 93%

    21 Iulie, Duminică

    Timp Temperatura Precipitaţii Vânt Presiune Umiditate
    00:00 +17°C° 0 mm 3 m/s 756 mmHg 94%
    01:00 +16°C° 0 mm 2 m/s 756 mmHg 94%
    02:00 +16°C° 0 mm 2 m/s 756 mmHg 94%
    03:00 +16°C° 0 mm 2 m/s 756 mmHg 94%
    04:00 +16°C° 0 mm 2 m/s 756 mmHg 94%
    05:00 +16°C° 0.1 mm 2 m/s 756 mmHg 93%
    06:00 +17°C° 0.1 mm 3 m/s 756 mmHg 92%
    07:00 +18°C° 0.1 mm 4 m/s 756 mmHg 90%
    08:00 +19°C° 1.1 mm 4 m/s 757 mmHg 86%
    09:00 +20°C° 1.1 mm 5 m/s 757 mmHg 83%
    10:00 +21°C° 1.1 mm 6 m/s 758 mmHg 79%
    11:00 +21°C° 0.2 mm 6 m/s 758 mmHg 75%
    12:00 +22°C° 0.2 mm 6 m/s 758 mmHg 71%
    13:00 +23°C° 0.2 mm 6 m/s 758 mmHg 67%
    14:00 +22°C° 0.1 mm 5 m/s 758 mmHg 68%
    15:00 +22°C° 0.1 mm 5 m/s 759 mmHg 69%
    16:00 +21°C° 0.1 mm 5 m/s 759 mmHg 70%
    17:00 +21°C° 0 mm 5 m/s 759 mmHg 73%
    18:00 +20°C° 0 mm 5 m/s 760 mmHg 75%
    19:00 +20°C° 0 mm 5 m/s 760 mmHg 78%
    20:00 +19°C° 0 mm 5 m/s 760 mmHg 83%
    21:00 +16°C° 0 mm 5 m/s 761 mmHg 88%
    22:00 +15°C° 0 mm 4 m/s 761 mmHg 92%
    23:00 +15°C° 0 mm 5 m/s 761 mmHg 90%

    22 Iulie, Luni

    Timp Temperatura Precipitaţii Vânt Presiune Umiditate
    00:00 +14°C° 0 mm 5 m/s 761 mmHg 88%
    01:00 +14°C° 0 mm 6 m/s 762 mmHg 85%
    02:00 +13°C° 0 mm 5 m/s 762 mmHg 88%
    03:00 +13°C° 0 mm 5 m/s 762 mmHg 91%
    04:00 +12°C° 0 mm 4 m/s 762 mmHg 94%
    05:00 +13°C° 0 mm 4 m/s 762 mmHg 89%
    06:00 +14°C° 0 mm 5 m/s 762 mmHg 85%
    07:00 +15°C° 0 mm 5 m/s 763 mmHg 80%
    08:00 +16°C° 0 mm 5 m/s 763 mmHg 75%
    09:00 +17°C° 0 mm 5 m/s 763 mmHg 70%
    10:00 +20°C° 0 mm 5 m/s 764 mmHg 65%
    11:00 +21°C° 0 mm 4 m/s 764 mmHg 62%
    12:00 +21°C° 0 mm 4 m/s 764 mmHg 59%
    13:00 +22°C° 0 mm 4 m/s 764 mmHg 57%
    14:00 +22°C° 0 mm 3 m/s 764 mmHg 57%
    15:00 +22°C° 0 mm 3 m/s 764 mmHg 57%
    16:00 +24°C° 0 mm 3 m/s 764 mmHg 57%
    17:00 +22°C° 0 mm 3 m/s 764 mmHg 61%
    18:00 +21°C° 0 mm 3 m/s 764 mmHg 65%
    19:00 +20°C° 0 mm 3 m/s 764 mmHg 69%
    20:00 +18°C° 0 mm 3 m/s 764 mmHg 74%
    21:00 +17°C° 0 mm 3 m/s 764 mmHg 79%
    22:00 +14°C° 0 mm 3 m/s 764 mmHg 84%
    23:00 +14°C° 0 mm 2 m/s 765 mmHg 84%
    Arată mai mult